This is the latest recevied weather packets stored in our database for station/object HB9FRQ-10. If no packets are shown the sender has not sent any weather packets the latest 10 day(s).
| Time | Temp. | Humidity | Pressure | Rain* | Wind** | Luminosity | Snow |
|---|---|---|---|---|---|---|---|
| 1777398841 | 18.33° C | 56% | 1016.8 hPa | - | - | - | - |
| 1777397940 | 18.89° C | 54% | 1016.7 hPa | - | - | - | - |
| 1777397040 | 19.44° C | 49% | 1016.7 hPa | - | - | - | - |
| 1777396140 | 20° C | 50% | 1016.7 hPa | - | - | - | - |
| 1777395240 | 20° C | 43% | 1016.7 hPa | - | - | - | - |
| 1777394340 | 20.56° C | 43% | 1016.6 hPa | - | - | - | - |
| 1777393440 | 20.56° C | 45% | 1016.6 hPa | - | - | - | - |
| 1777392540 | 21.11° C | 49% | 1016.7 hPa | - | - | - | - |
| 1777391640 | 21.11° C | 44% | 1016.6 hPa | - | - | - | - |
| 1777390740 | 21.11° C | 38% | 1016.4 hPa | - | - | - | - |
| 1777389840 | 21.11° C | 42% | 1016.5 hPa | - | - | - | - |
| 1777388940 | 21.67° C | 38% | 1016.3 hPa | - | - | - | - |
| 1777388040 | 22.22° C | 40% | 1016.4 hPa | - | - | - | - |
| 1777387140 | 22.22° C | 37% | 1016.4 hPa | - | - | - | - |
| 1777386239 | 22.78° C | 38% | 1016.5 hPa | - | - | - | - |
| 1777385339 | 22.78° C | 39% | 1016.4 hPa | - | - | - | - |
| 1777384439 | 22.78° C | 36% | 1016.4 hPa | - | - | - | - |
| 1777383539 | 23.33° C | 38% | 1016.4 hPa | - | - | - | - |
| 1777382639 | 21.67° C | 36% | 1016.5 hPa | - | - | - | - |
| 1777381739 | 22.22° C | 37% | 1016.3 hPa | - | - | - | - |
| 1777380839 | 22.22° C | 36% | 1016.4 hPa | - | - | - | - |
| 1777379945 | 22.22° C | 34% | 1016.5 hPa | - | - | - | - |
| 1777379045 | 22.78° C | 36% | 1016.5 hPa | - | - | - | - |
| 1777378145 | 22.78° C | 35% | 1016.5 hPa | - | - | - | - |
| 1777377245 | 21.67° C | 37% | 1016.5 hPa | - | - | - | - |
* Rain since midnight (hover to see other rain measurements)
** Current wind speed in m/s (hover to see current wind gust speed)